Defiance, OH

3:38 PM EDT on August 18, 2017 (GMT -0400)
Defiance Memorial

Weather History for KDFI - March, 2013

Change the Weather History Date:

Monday, March 25, 2013

  Actual Average Record
Temperature  
Mean Temperature 33 °F -  
Max Temperature 36 °F 47 °F 81 °F (1945)
Min Temperature 30 °F 27 °F 2 °F (1974)
Degree Days  
Heating Degree Days 32    
Moisture  
Dew Point 28 °F    
Average Humidity 83    
Maximum Humidity 93    
Minimum Humidity 72    
Precipitation  
Precipitation 0.03 in - - ()
Sea Level Pressure  
Sea Level Pressure 29.63 in    
Wind  
Wind Speed 14 mph (North)    
Max Wind Speed 18 mph    
Max Gust Speed 28 mph    
Visibility 3 miles    
Events Snow    
Averages and records for this station are not official NWS values.
T = Trace of Precipitation, MM = Missing Value Source: NWS Daily Summary

Daily Weather History Graph

Daily Weather History Graph

Search for Another Location

Airport or City:

Trip Planner

Search our weather history database for the weather conditions in past years. The results will help you decide how hot, cold, wet, or windy it might be!

Date:

Astronomy

Mar. 25, 2013 Rise Set
Actual Time 7:32 AM EDT 7:55 PM EDT
Civil Twilight 7:04 AM EDT 8:23 PM EDT
Nautical Twilight 6:32 AM EDT 8:55 PM EDT
Astronomical Twilight 5:58 AM EDT 9:29 PM EDT
Moon 6:25 PM EDT (3/25) 6:16 AM EDT (3/25)
Length of Visible Light 13h 18m
Length of Day
12h 23m
Waxing Gibbous, 96% of the Moon is Illuminated
Mar 25
Waxing Gibbous
Mar 27
Full
Apr 3
Last Quarter
Apr 10
New
Apr 18
First Quarter

Hourly Weather History & Observations

Time (EDT) Temp. Windchill Dew Point Humidity Pressure Visibility Wind Dir Wind Speed Gust Speed Precip Events Conditions
12:53 AM 30.9 °F 20.2 °F 25.0 °F 79% 29.57 in 5.0 mi NNE 15.0 mph 25.3 mph 0.00 in Snow Light Snow
1:08 AM 30.2 °F 18.5 °F 24.8 °F 80% 29.55 in 2.0 mi NNE 17.3 mph 26.5 mph 0.00 in Snow Light Snow
1:18 AM 30.2 °F 18.5 °F 26.6 °F 86% 29.54 in 1.8 mi NNE 17.3 mph - 0.00 in Snow Light Snow
1:44 AM 30.2 °F 19.3 °F 26.6 °F 86% 29.54 in 2.0 mi NNE 15.0 mph 25.3 mph 0.00 in Snow Light Snow
1:53 AM 30.0 °F 18.7 °F 26.1 °F 85% 29.56 in 2.0 mi NNE 16.1 mph 21.9 mph 0.00 in Snow Light Snow
2:02 AM 30.2 °F 19.8 °F 26.6 °F 86% 29.54 in 2.5 mi NNE 13.8 mph 25.3 mph 0.00 in Snow Light Snow
2:10 AM 30.2 °F 20.2 °F 26.6 °F 86% 29.53 in 2.5 mi NNE 12.7 mph - 0.00 in Snow Light Snow
2:27 AM 30.2 °F 19.3 °F 26.6 °F 86% 29.53 in 2.0 mi NNE 15.0 mph 20.7 mph 0.00 in Snow Light Snow
2:36 AM 30.2 °F 19.3 °F 26.6 °F 86% 29.53 in 1.8 mi NNE 15.0 mph 23.0 mph 0.00 in Snow Light Snow
2:49 AM 30.2 °F 19.3 °F 26.6 °F 86% 29.53 in 2.0 mi NNE 15.0 mph - 0.00 in Snow Light Snow
2:53 AM 30.0 °F 19.5 °F 26.1 °F 85% 29.55 in 2.0 mi NNE 13.8 mph 21.9 mph 0.00 in Snow Light Snow
3:00 AM 30.2 °F 19.8 °F 26.6 °F 86% 29.53 in 1.2 mi NNE 13.8 mph - 0.00 in Snow Light Snow
3:53 AM 30.0 °F 19.5 °F 27.0 °F 88% 29.53 in 2.0 mi NNE 13.8 mph - 0.00 in Snow Light Snow
4:09 AM 30.2 °F 18.9 °F 26.6 °F 86% 29.51 in 2.5 mi NNE 16.1 mph 21.9 mph 0.00 in Snow Light Snow
4:14 AM 30.2 °F 18.9 °F 26.6 °F 86% 29.51 in 4.0 mi NNE 16.1 mph 21.9 mph 0.00 in Snow Light Snow
4:23 AM 30.2 °F 18.5 °F 26.6 °F 86% 29.50 in 5.0 mi NNE 17.3 mph 27.6 mph 0.00 in Snow Light Snow
4:51 AM 30.2 °F 18.1 °F 26.6 °F 86% 29.50 in 2.5 mi NNE 18.4 mph - 0.00 in Snow Light Snow
4:53 AM 30.0 °F 18.7 °F 26.1 °F 85% 29.52 in 2.5 mi NNE 16.1 mph - 0.00 in Snow Light Snow
4:58 AM 30.2 °F 19.3 °F 26.6 °F 86% 29.50 in 3.0 mi NNE 15.0 mph - 0.00 in Snow Light Snow
5:01 AM 30.2 °F 18.5 °F 26.6 °F 86% 29.50 in 2.5 mi NNE 17.3 mph 23.0 mph 0.00 in Snow Light Snow
5:17 AM 30.2 °F 18.9 °F 26.6 °F 86% 29.50 in 4.0 mi NNE 16.1 mph 25.3 mph 0.00 in Snow Light Snow
5:53 AM 30.0 °F 19.1 °F 26.1 °F 85% 29.52 in 4.0 mi NNE 15.0 mph 21.9 mph 0.00 in Snow Light Snow
6:11 AM 30.2 °F 19.8 °F 26.6 °F 86% 29.50 in 2.5 mi NNE 13.8 mph 24.2 mph 0.00 in Snow Light Snow
6:49 AM 30.2 °F 18.9 °F 26.6 °F 86% 29.51 in 1.2 mi North 16.1 mph 23.0 mph 0.01 in Snow Light Snow
6:53 AM 30.0 °F 20.0 °F 27.0 °F 88% 29.53 in 1.5 mi North 12.7 mph - 0.01 in Snow Light Snow
7:02 AM 30.2 °F 19.3 °F 26.6 °F 86% 29.51 in 2.0 mi NNE 15.0 mph - 0.00 in Snow Light Snow
7:09 AM 30.2 °F 19.8 °F 26.6 °F 86% 29.52 in 1.2 mi NNE 13.8 mph - 0.00 in Snow Light Snow
7:16 AM 30.2 °F 19.8 °F 26.6 °F 86% 29.52 in 1.0 mi North 13.8 mph - 0.00 in Snow Light Snow
7:29 AM 30.2 °F 19.8 °F 26.6 °F 86% 29.52 in 1.2 mi North 13.8 mph 23.0 mph 0.00 in Snow Light Snow
7:50 AM 30.2 °F 20.8 °F 26.6 °F 86% 29.53 in 0.8 mi North 11.5 mph 20.7 mph 0.00 in Snow Light Snow
7:53 AM 30.0 °F 19.1 °F 27.0 °F 88% 29.55 in 0.8 mi North 15.0 mph 20.7 mph 0.00 in Snow Light Snow
8:50 AM 30.2 °F 20.2 °F 28.4 °F 93% 29.55 in 1.2 mi North 12.7 mph - 0.00 in Snow Light Snow
8:53 AM 30.9 °F 21.2 °F 28.0 °F 89% 29.58 in 1.5 mi North 12.7 mph - 0.00 in Snow Light Snow
9:01 AM 30.2 °F 20.8 °F 28.4 °F 93% 29.56 in 1.5 mi North 11.5 mph - 0.00 in Snow Light Snow
9:40 AM 30.2 °F 19.3 °F 28.4 °F 93% 29.57 in 1.5 mi North 15.0 mph - 0.00 in Snow Light Snow
9:49 AM 30.2 °F 20.2 °F 28.4 °F 93% 29.57 in 1.8 mi North 12.7 mph - 0.00 in Snow Light Snow
9:53 AM 30.9 °F 21.2 °F 28.0 °F 89% 29.60 in 2.0 mi North 12.7 mph - 0.00 in Snow Light Snow
10:01 AM 30.2 °F 19.3 °F 28.4 °F 93% 29.58 in 2.5 mi North 15.0 mph - 0.00 in Snow Light Snow
10:19 AM 30.2 °F 20.2 °F 28.4 °F 93% 29.58 in 3.0 mi North 12.7 mph 20.7 mph 0.00 in Snow Light Snow
10:34 AM 32.0 °F 22.5 °F 28.4 °F 87% 29.59 in 2.0 mi North 12.7 mph 23.0 mph 0.00 in Snow Light Snow
10:42 AM 32.0 °F 22.1 °F 28.4 °F 87% 29.59 in 1.0 mi North 13.8 mph - 0.01 in Snow Light Snow
10:53 AM 32.0 °F 22.5 °F 28.0 °F 85% 29.62 in 1.2 mi North 12.7 mph 20.7 mph 0.01 in Snow Light Snow
11:08 AM 32.0 °F 22.1 °F 28.4 °F 87% 29.60 in 2.0 mi North 13.8 mph - 0.00 in Snow Light Snow
11:15 AM 32.0 °F 22.1 °F 28.4 °F 87% 29.60 in 3.0 mi North 13.8 mph 21.9 mph 0.00 in Snow Light Snow
11:40 AM 33.8 °F 23.9 °F 28.4 °F 81% 29.62 in 2.5 mi North 15.0 mph - 0.00 in Snow Light Snow
11:53 AM 33.1 °F 23.9 °F 28.0 °F 82% 29.64 in 2.5 mi North 12.7 mph 19.6 mph 0.00 in Snow Light Snow
11:56 AM 33.8 °F 24.3 °F 28.4 °F 81% 29.62 in 3.0 mi North 13.8 mph 19.6 mph 0.00 in Snow Light Snow
12:07 PM 33.8 °F 24.3 °F 28.4 °F 81% 29.63 in 3.0 mi North 13.8 mph - 0.00 in Snow Light Snow
12:15 PM 33.8 °F 25.3 °F 28.4 °F 81% 29.63 in 3.0 mi North 11.5 mph 19.6 mph 0.00 in Snow Light Snow
12:26 PM 33.8 °F 25.3 °F 28.4 °F 81% 29.64 in 3.0 mi North 11.5 mph - 0.00 in Snow Light Snow
12:35 PM 33.8 °F 24.8 °F 28.4 °F 81% 29.64 in 2.5 mi North 12.7 mph 21.9 mph 0.00 in Snow Light Snow
12:43 PM 33.8 °F 24.3 °F 28.4 °F 81% 29.64 in 1.8 mi North 13.8 mph - 0.00 in Snow Light Snow
12:53 PM 33.1 °F 23.9 °F 28.9 °F 85% 29.67 in 1.0 mi North 12.7 mph - 0.00 in Snow Light Snow
1:03 PM 33.8 °F 24.8 °F 30.2 °F 87% 29.65 in 0.8 mi North 12.7 mph - 0.01 in Snow Light Snow
1:43 PM 33.8 °F 24.3 °F 28.4 °F 81% 29.66 in 1.2 mi NNW 13.8 mph 17.3 mph 0.01 in Snow Light Snow
1:53 PM 34.0 °F 26.0 °F 30.0 °F 85% 29.69 in 1.5 mi NNW 10.4 mph - 0.01 in Snow Light Snow
2:04 PM 35.6 °F 26.6 °F 30.2 °F 81% 29.67 in 2.0 mi North 13.8 mph - 0.00 in Snow Light Snow
2:19 PM 35.6 °F 27.1 °F 30.2 °F 81% 29.67 in 1.5 mi North 12.7 mph - 0.00 in Snow Light Snow
2:28 PM 35.6 °F 28.0 °F 28.4 °F 75% 29.67 in 2.5 mi North 10.4 mph - 0.00 in Snow Light Snow
2:32 PM 35.6 °F 26.6 °F 30.2 °F 81% 29.68 in 3.0 mi North 13.8 mph - 0.00 in Snow Light Snow
2:51 PM 35.6 °F 25.9 °F 28.4 °F 75% 29.68 in 2.5 mi North 16.1 mph - 0.00 in Snow Light Snow
2:53 PM 35.1 °F 25.5 °F 28.9 °F 78% 29.70 in 2.5 mi North 15.0 mph - 0.00 in Snow Light Snow
3:01 PM 35.6 °F 27.1 °F 28.4 °F 75% 29.68 in 3.0 mi North 12.7 mph 21.9 mph 0.00 in Snow Light Snow
3:07 PM 35.6 °F 28.0 °F 28.4 °F 75% 29.69 in 2.5 mi North 10.4 mph - 0.00 in Snow Light Snow
3:20 PM 35.6 °F 26.2 °F 28.4 °F 75% 29.69 in 1.8 mi North 15.0 mph - 0.00 in Snow Light Snow
3:53 PM 35.1 °F 27.4 °F 30.9 °F 85% 29.73 in 2.0 mi North 10.4 mph - 0.00 in Snow Light Snow
4:06 PM 35.6 °F 27.1 °F 30.2 °F 81% 29.71 in 1.5 mi North 12.7 mph - 0.00 in Snow Light Snow
4:12 PM 35.6 °F 27.5 °F 30.2 °F 81% 29.72 in 2.5 mi North 11.5 mph - 0.00 in Snow Light Snow
4:21 PM 35.6 °F 27.1 °F 30.2 °F 81% 29.72 in 5.0 mi North 12.7 mph - 0.00 in Snow Light Snow
4:34 PM 35.6 °F 26.2 °F 28.4 °F 75% 29.72 in 2.0 mi North 15.0 mph - 0.00 in Snow Light Snow
4:39 PM 35.6 °F 27.1 °F 30.2 °F 81% 29.73 in 2.5 mi North 12.7 mph - 0.00 in Snow Light Snow
4:47 PM 35.6 °F 27.1 °F 30.2 °F 81% 29.73 in 4.0 mi NNW 12.7 mph - 0.00 in   Haze
5:04 PM 35.6 °F 27.5 °F 30.2 °F 81% 29.74 in 5.0 mi North 11.5 mph - N/A   Haze
5:53 PM 36.0 °F 28.5 °F 28.9 °F 76% 29.78 in 8.0 mi North 10.4 mph - 0.00 in   Overcast
6:20 PM 35.6 °F 28.0 °F 30.2 °F 81% 29.78 in 4.0 mi North 10.4 mph - 0.00 in Snow Light Snow
6:53 PM 35.1 °F 30.1 °F 30.9 °F 85% 29.82 in 8.0 mi NW 5.8 mph - 0.00 in Snow Light Snow
7:02 PM 35.6 °F 29.9 °F 30.2 °F 81% 29.80 in 10.0 mi NW 6.9 mph - 0.00 in Snow Light Snow
7:34 PM 35.6 °F 29.2 °F 30.2 °F 81% 29.82 in 10.0 mi NW 8.1 mph - 0.00 in   Overcast
7:53 PM 36.0 °F 27.5 °F 28.9 °F 76% 29.85 in 10.0 mi NNW 12.7 mph - 0.00 in   Overcast
8:53 PM 36.0 °F 29.0 °F 28.0 °F 73% 29.88 in 10.0 mi NNW 9.2 mph - N/A   Overcast
9:53 PM 35.1 °F 29.3 °F 27.0 °F 72% 29.92 in 10.0 mi NNW 6.9 mph - N/A   Overcast
10:53 PM 35.1 °F 27.9 °F 27.0 °F 72% 29.93 in 10.0 mi NNW 9.2 mph - N/A   Overcast
11:53 PM 35.1 °F 27.9 °F 28.0 °F 76% 29.94 in 10.0 mi NNW 9.2 mph - N/A   Overcast